{"data":{"norad_id":65358,"intl_designator":"2025-190H","name":"STARLINK-34782","alt_names":[],"object_type":"PAYLOAD","status":"ACTIVE","operator":null,"country":"US","launch_date":"2025-08-28","launch_site_code":"AFETR","launch_vehicle":null,"mission":null,"orbit_class":"UNKNOWN","rcs_meters":null,"size_class":null,"mass_kg":null,"dimensions":null,"purposes":["comms"],"wikipedia_slug":null,"has_3d_model":false,"image_url":null,"decayed_at":null,"tle_current":{"epoch":"2026-05-25T01:36:41.082624Z","epoch_age_seconds":65305,"freshness":"FRESH","line1":"1 65358U 25190H   26145.06714216  .00005127  00000+0  18509-3 0  9999","line2":"2 65358  53.1590 173.0796 0001245  78.2477 281.8663 15.30200829 41450","mean_motion":15.30200829,"eccentricity":0.0001245,"inclination_deg":53.159,"raan_deg":173.0796,"arg_perigee_deg":78.2477,"mean_anomaly_deg":281.8663,"bstar":0.00018509,"rev_number":4145,"period_min":94.10529472403,"perigee_km":474.35935215139,"apogee_km":476.06583620035,"semimajor_km":6853.3495941759,"source":"CELESTRAK","updated_at":"2026-05-25T13:38:20.766139Z"}}}